Location: Kellogg
(38.0159°N, 90.0546°W)
Time: 15:56:49
(UTC+00:00)

Vanguard 1 Rocket - All Passes

Search period start: 13 September 2024 00:00
Search period end: 23 September 2024 00:00
Orbit: 649 x 4220 km, 34.3° (Epoch: 12 September)

Date Brightness Start Highest point End Pass type
(mag) Time Alt. Az. Time Alt. Az. Time Alt. Az.
13 Sep - 07:47:41 10° SSW 07:58:35 34° SE 08:16:23 10° E visible
13 Sep - 10:10:17 10° WSW 10:26:10 70° SSE 10:51:50 10° E visible
13 Sep - 12:37:05 10° W 12:58:39 80° S 13:24:36 10° ESE daylight
13 Sep - 15:06:58 10° W 15:31:46 62° SSW 15:53:13 10° SE daylight
13 Sep - 17:41:19 10° W 18:00:44 29° SW 18:15:36 10° S daylight
14 Sep - 06:39:03 10° SSE 06:46:32 19° SE 06:57:03 10° E visible
14 Sep - 08:58:33 10° SW 09:11:43 56° SSE 09:34:40 10° ENE visible
14 Sep - 11:23:39 10° WSW 11:42:10 80° S 12:08:49 10° E daylight
14 Sep - 13:51:59 10° W 14:15:35 72° SSW 14:39:44 10° ESE daylight
14 Sep - 16:23:37 10° WNW 16:46:43 43° SW 17:05:13 10° SSE daylight
14 Sep - 19:07:37 10° WSW 19:13:16 11° WSW 19:18:25 10° SW daylight
15 Sep - 07:47:46 10° SSW 07:58:29 40° SE 08:17:00 10° ENE visible
15 Sep - 10:11:01 10° WSW 10:26:29 74° SSE 10:52:10 10° E visible
15 Sep - 12:37:52 10° W 12:58:58 79° S 13:25:03 10° ESE daylight
15 Sep - 15:07:35 10° WNW 15:31:38 56° SSW 15:53:16 10° SE daylight
15 Sep - 17:42:54 10° W 18:00:13 24° SW 18:14:19 10° S daylight
16 Sep - 06:38:19 10° S 06:46:20 24° SE 06:58:35 10° E visible
16 Sep - 08:59:08 10° SW 09:11:54 62° SSE 09:34:58 10° E visible
16 Sep - 11:24:29 10° W 11:42:35 80° S 12:09:14 10° E daylight
16 Sep - 13:52:41 10° W 14:15:39 68° SSW 14:39:58 10° SE daylight
16 Sep - 16:24:31 10° W 16:46:18 37° SW 17:04:40 10° SSE daylight
17 Sep - 07:48:05 10° SSW 07:58:31 46° SE 08:17:27 10° ENE visible
17 Sep - 10:11:50 10° WSW 10:26:53 77° SSE 10:52:30 10° E visible
17 Sep - 12:38:39 10° W 12:59:15 76° SSW 13:25:22 10° ESE daylight
17 Sep - 15:08:17 10° WNW 15:31:24 50° SW 15:53:04 10° SSE daylight
17 Sep - 17:45:18 10° W 17:59:42 19° SW 18:12:10 10° SSW daylight
18 Sep - 06:38:06 10° S 06:46:14 29° SE 06:59:36 10° E visible
18 Sep - 08:59:52 10° WSW 09:12:14 67° SSE 09:35:14 10° E visible
18 Sep - 11:25:21 10° W 11:43:00 80° S 12:09:34 10° ESE daylight
18 Sep - 13:53:24 10° W 14:15:39 62° SSW 14:39:59 10° SE daylight
18 Sep - 16:25:41 10° W 16:45:51 31° SW 17:03:40 10° S daylight
19 Sep - 05:30:29 10° SSE 05:34:46 14° ESE 05:40:11 10° E visible
19 Sep - 07:48:36 10° SW 07:58:43 52° SSE 08:17:49 10° E visible
19 Sep - 10:12:42 10° WSW 10:27:22 79° S 10:52:48 10° E visible
19 Sep - 12:39:27 10° W 12:59:29 72° SSW 13:25:32 10° ESE daylight
19 Sep - 15:09:07 10° W 15:31:06 44° SW 15:52:33 10° SSE daylight
19 Sep - 17:49:22 10° W 17:59:12 14° WSW 18:08:17 10° SSW daylight
20 Sep - 06:38:13 10° SSW 06:46:17 34° SE 07:00:21 10° E visible
20 Sep - 09:00:40 10° WSW 09:12:40 72° SSE 09:35:29 10° E visible
20 Sep - 11:26:13 10° W 11:43:24 78° S 12:09:49 10° ESE daylight
20 Sep - 13:54:10 10° W 14:15:35 56° SSW 14:39:46 10° SE daylight
20 Sep - 16:27:19 10° W 16:45:23 25° SW 17:02:06 10° S daylight
21 Sep - 05:29:20 10° SSE 05:34:43 18° SE 05:42:19 10° E visible
21 Sep - 07:49:15 10° SW 07:59:02 58° SSE 08:18:06 10° E visible
21 Sep - 10:13:37 10° W 10:27:53 79° S 10:53:03 10° E visible
21 Sep - 12:40:15 10° W 12:59:39 67° SSW 13:25:31 10° SE daylight
21 Sep - 15:10:09 10° W 15:30:46 38° SW 15:51:41 10° SSE daylight
22 Sep - 06:38:34 10° SSW 06:46:28 40° SE 07:00:55 10° E visible
22 Sep - 09:01:33 10° WSW 09:13:12 75° SSE 09:35:43 10° E visible
22 Sep - 11:27:07 10° W 11:43:47 75° SSW 12:09:57 10° ESE daylight
22 Sep - 13:55:01 10° W 14:15:28 50° SSW 14:39:16 10° SSE daylight
22 Sep - 16:29:41 10° W 16:44:57 20° SW 16:59:40 10° SSW daylight
